Regional Weather Roundup
Issued by NWS

Home | Current Version | Previous Version | Graphics & Text | Print | Product List | Glossary On
Versions: 1 2 3 4 5 6 7 8 9 10 11 12 13 14 15 16 17 18 19 20 21 22 23 24 25 26 27 28 29 30 31 32 33 34 35 36 37 38 39 40 41 42 43 44 45 46 47 48 49 50
996
ASUS45 KBOU 251207
RWRCO

WEATHER ROUNDUP FOR COLORADO
NATIONAL WEATHER SERVICE DENVER/BOULDER CO
600 AM MDT WED MAY 25 2016

NOTE: "FAIR" INDICATES FEW OR NO CLOUDS BELOW 12000 FEET WITH NO
SIGNIFICANT WEATHER AND/OR OBSTRUCTIONS TO VISIBILITY.

COZ001>005-013-030-031-251300-
...NORTHWEST COLORADO...

CITY           SKY/WX    TMP DP  RH WIND       PRES   REMARKS
CRAIG          FAIR      42  34  73 CALM      30.04F
HAYDEN         FAIR      41  32  70 SE10      30.06F
MEEKER         FAIR      41  34  76 NE5       30.06S
MOUNT WERNER   NOT AVBL
STEAMBOAT SPGS FAIR      40  33  76 E5        30.08S
WALDEN         FAIR      34  27  75 S3        30.11R
$$

COZ006>008-011-251300-
...WEST CENTRAL VALLEYS...

CITY           SKY/WX    TMP DP  RH WIND       PRES   REMARKS
GRAND JUNCTION FAIR      50  29  44 E5        30.01R
MONTROSE       FAIR      46  23  40 SE3       30.09R
EAGLE          CLOUDY    43  28  56 CALM      30.10R
RIFLE          FAIR      46  32  58 E6        30.03R
DELTA          FAIR      49  26  40 NE3       30.05R
NUCLA          FAIR      45  21  39 E7        30.12R
$$

COZ017>023-064>068-251300-
...SOUTHWEST COLORADO...

CITY           SKY/WX    TMP DP  RH WIND       PRES   REMARKS
DURANGO        FAIR      36  22  56 N5        30.13R
CORTEZ         FAIR      43  24  47 NE8       30.10R
PAGOSA SPRINGS FAIR      37  20  49 CALM      30.19R
TELLURIDE      FAIR      40  14  34 CALM      30.22R
WOLF CREEK PAS FAIR      27  12  54 SW16G23   30.32F WCI  14
$$

COZ009-010-012-014-032>034-037-058>063-251300-
...CENTRAL COLORADO...

CITY           SKY/WX    TMP DP  RH WIND       PRES   REMARKS
ASPEN          MOCLDY    43  24  47 SE7       30.10R
BUENA VISTA    FAIR      36  16  43 CALM      30.13R
COPPER MTN     NOT AVBL
BERTHOUD PASS  FAIR      27  18  69 W17G30    30.22S WCI  14
COTTONWOOD PAS FAIR      43   9  24 SW7       30.19R
GUNNISON       FAIR      39  18  41 NE10      30.15R
KREMMLING      FAIR      36  28  75 CALM      30.11R
LEADVILLE      FAIR      34  15  46 VRB3      30.17R
MONARCH PASS   FAIR      30  12  47 W13G26    30.38R WCI  20
SALIDA         FAIR      44  15  31 CALM      30.19R
SUNLIGHT       FAIR      34  27  75 CALM      30.23R
WILKERSON PASS FAIR      32  12  43 SW7       30.21R WCI  26
$$

COZ069>075-251300-
...SAN LUIS VALLEY/SANGRE DE CRISTO MOUNTAINS...

CITY           SKY/WX    TMP DP  RH WIND       PRES   REMARKS
ALAMOSA        FAIR      42  14  32 N7        30.12R
LA VETA PASS   FAIR      37   9  30 S16G28    30.19R
SAGUACHE       FAIR      36  18  48 N5        30.15R
$$

COZ035-036-038>040-251300-
...NORTHERN COLORADO FRONT RANGE...

CITY           SKY/WX    TMP DP  RH WIND       PRES   REMARKS
DENVER INTL AP FAIR      48  39  71 SW3       29.98R
DMNS CITY PARK   N/A     48  43  83 SE8       29.99R
AURORA         PTCLDY    45  43  93 S2        30.00R
FRONT RANGE AP NOT AVBL
ERIE MUNI ARPT FAIR      45  41  86 SW6       29.97R
BOULDER MUN AP FAIR      46  36  66 SW8       29.97R
CENTENNIAL     FAIR      46  40  79 W6        30.00R
BROOMFIELD     FAIR      46  37  71 SW5       30.00R
FORT COLLINS   FAIR      50  43  76 CALM      29.97R
LONGMONT       FAIR      42  37  83 SW3       29.99R HAZE
$$

COZ041-046-047-076>085-087-088-251300-
...PIKES PEAK/PALMER DIVIDE AND SOUTHERN FOOTHILLS...

CITY           SKY/WX    TMP DP  RH WIND       PRES   REMARKS
COLO. SPRINGS  FAIR      57  15  19 N18       29.99R
A. F. ACADEMY  FAIR      48  28  46 NE14      30.00R
SCHRIEVER AFB  NOT AVBL
ELLICOTT       FAIR     N/A N/A N/A CALM      29.98R
FALCON         FAIR      49  30  47 NW12G17   30.04R
FORT CARSON    FAIR      55  18  23 NW10      29.96R
LIMON          CLOUDY    52  52 100 NW8       29.97R FOG
MONUMENT HILL  FAIR      37  34  87 W8        30.07R
TRINIDAD       FAIR      49  13  23 W7        29.98R
$$

COZ042>045-048>051-090-091-251300-
...NORTHEAST COLORADO...

CITY           SKY/WX    TMP DP  RH WIND       PRES   REMARKS
GREELEY ARPT   FAIR      43  37  81 CALM      29.96S
AKRON          CLOUDY    54  51  90 E12       29.94R
BURLINGTON     CLOUDY    57  55  93 NE14      29.92R
WRAY           FAIR      55  55 100 E5        29.91S
STERLING       MOCLDY    52  50  93 NE3       29.93R
HOLYOKE        FAIR      54  50  87 SW3       29.91S
FORT MORGAN    MOCLDY    47  45  90 N5        29.97R
$$

COZ086-089-092>099-251300-
...SOUTHEAST COLORADO...

CITY           SKY/WX    TMP DP  RH WIND       PRES   REMARKS
PUEBLO         FAIR      57  19  22 VRB6      29.91R
LA JUNTA       FAIR      51  23  33 W9        29.90R
LAMAR          FAIR      46  33  60 NW5       29.87R
SPRINGFIELD      N/A     50  26  39 W12       29.91R
$$




USA.gov is the U.S. government's official web portal to all federal, state and local government web resources and services.